Location: Bonrite
(6.5167°N, 10.7833°W)
Time: 05:54:02
(UTC+00:00)

Daily predictions for brighter satellites

Satellite Brightness Start Highest point End
(mag) Time Altitude Azimuth Time Altitude Azimuth Time Altitude Azimuth
Cosmos 2278 Rocket 4.1 03:54:09 26° ENE 03:54:09 26° ENE 03:57:02 10° NE
NOSS 3-4 (A) 4.0 04:17:05 50° NE 04:17:05 50° NE 04:21:30 10° NNE
NOSS 3-4 (C) 4.0 04:17:10 51° ENE 04:17:10 51° ENE 04:21:38 10° NNE
USA 281 3.2 04:17:43 10° NNE 04:23:50 79° NE 04:23:50 79° NE
SeaSat 1 4.4 04:21:26 10° N 04:22:56 20° N 04:22:56 20° N
Chandra Rocket (1) 4.3 04:24:54 51° WNW 04:27:26 59° NW 04:33:22 10° NE
Cosmos 1932 4.5 04:24:14 10° NNW 04:30:32 76° ENE 04:36:42 10° SSE
ATLAS 2AS CENTAUR R/B 2.8 04:37:22 63° SSW 04:38:48 85° WNW 04:46:47 10° NNE
CZ-2C R/B 3.9 04:38:18 10° N 04:40:21 26° N 04:40:21 26° N
DELTA 4 R/B 4.3 04:38:56 40° W 04:45:13 65° NNW 04:50:59 10° NE
SWIFT 4.4 04:47:18 20° N 04:47:18 20° N 04:49:39 10° NE
ARIANE 5 DEB (SYLDA) 4.4 04:48:14 28° SE 04:48:14 28° SE 04:51:15 10° ESE
ARIANE 5 R/B 3.7 04:48:54 42° WSW 04:52:06 57° SSW 04:56:16 10° ESE
GPS 2-18 Rocket1 4.2 04:54:10 42° ENE 04:54:10 42° ENE 04:56:58 10° E
Ariane H10+ 4.5 04:54:55 17° SSE 04:54:55 17° SSE 04:56:56 10° SE
Sylda 5 2.7 04:55:08 52° S 04:55:14 53° S 04:58:39 10° E
ATLAS 3B CENTAUR R/B 3.8 04:47:27 10° NW 04:57:47 40° NNE 05:02:37 10° E
BREEZE-M DEB (TANK) 4.5 04:59:25 40° SSW 04:59:25 40° SSW 05:08:31 10° SSE
Meteor 1-31 Rocket 3.4 04:56:04 10° NNE 04:59:45 53° E 05:00:28 45° SE
FENGYUN 3A 4.0 04:55:47 10° NNE 05:01:05 63° ESE 05:06:03 12° S
Cosmos 1484 Rocket 3.0 04:57:44 10° NNE 05:01:28 64° ESE 05:01:48 60° SE
ALOS 2.7 04:57:57 10° NNE 05:02:32 61° ESE 05:05:44 20° S
Cosmos 1709 Rocket 3.8 05:00:51 10° N 05:06:56 78° W 05:13:03 10° S
APEX 4.3 05:05:36 23° SSE 05:07:31 39° ESE 05:10:41 10° NE
Ariane H10+ 3.8 04:03:35 10° W 05:09:35 64° SSW 05:14:50 10° ESE
Cosmos 1455 3.8 05:15:50 22° NNW 05:15:50 22° NNW 05:17:30 10° NNW
ASTEX 1 4.0 05:10:38 10° NNE 05:15:26 56° E 05:20:16 10° S
Delta 142 3.5 05:14:35 39° NW 05:15:57 71° NNE 05:20:14 10° ESE
Nadezhda 1 Rocket 4.2 05:13:08 10° S 05:19:31 75° E 05:25:52 10° N
ERS-2 4.1 05:22:37 16° NW 05:22:37 16° NW 05:23:27 10° NNW
ADEOS 4.1 05:17:12 10° N 05:21:56 36° WNW 05:22:50 34° W
CZ-4B R/B 3.7 05:20:07 10° N 05:23:47 58° W 05:24:56 39° SW
METEOR-M 4.0 05:18:39 10° N 05:23:59 85° WNW 05:29:20 10° SSW
GPS 2-15 Rocket1 4.0 05:24:34 30° SW 05:25:14 31° SSW 05:29:35 10° SE
Cosmos 1400 Rocket 4.3 05:27:17 21° NW 05:27:17 21° NW 05:29:08 10° NNW
Mugunghwa Rocket 4.3 05:24:51 28° WSW 05:28:56 83° NNW 05:36:46 10° ENE
SAR-Lupe-4 3.9 05:26:16 10° SSE 05:29:48 66° ENE 05:33:20 10° N
ARIANE 44LP R/B 0.9 05:29:58 84° NW 05:30:01 87° N 05:32:15 10° E
Cosmos 1624 Rocket 4.0 05:26:50 10° S 05:32:07 83° ESE 05:37:20 10° NNE
SJ-12 3.9 05:28:10 10° NNE 05:32:13 84° ESE 05:36:17 10° S
Cosmos 2278 Rocket 3.8 05:36:03 16° WNW 05:36:03 16° WNW 05:39:03 10° NW
Centaur Rocket 3.8 05:35:52 26° W 05:38:13 78° NNW 05:49:40 10° ENE
Spot 2 4.3 05:33:31 10° NNE 05:38:15 82° ESE 05:42:41 10° S
BLOCK DM-SL R/B 3.2 05:37:09 24° SW 05:38:27 36° SSE 05:46:09 10° E
Ariane H10 4.0 05:40:19 22° W 05:43:22 74° S 06:06:45 10° E
SAR-Lupe-1 3.9 05:41:09 10° S 05:44:42 73° WSW 05:48:16 10° NNW
CZ-4B R/B 3.2 05:44:28 10° N 05:48:34 47° WNW 05:52:30 10° SSW
Cosmos 371 Rocket 3.6 05:49:08 10° S 05:53:58 73° ESE 05:58:47 10° NNE
Cosmos 1076 Rocket 3.6 05:50:06 10° NNW 05:54:20 52° W 05:58:34 10° S
Cosmos 2369 Rocket 3.9 05:51:11 10° SSE 05:56:10 33° ESE 06:01:06 10° NE
Cosmos 1315 Rocket 3.3 05:52:28 10° SSW 05:56:17 39° W 06:00:08 10° NNW
Cosmos 2251 Rocket 4.3 05:54:37 10° N 05:59:53 58° ENE 06:05:08 10° SSE
CZ-4B R/B 2.2 05:57:14 10° SSW 06:00:08 28° WSW 06:02:59 10° NW
USA 81 4.0 05:55:07 10° N 06:00:23 81° W 06:05:39 10° S
Palapa B4 Rocket 3.8 05:56:37 13° W 06:01:58 53° NNW 06:06:05 10° ENE
Cosmos 1943 Rocket 2.5 05:57:13 10° S 06:02:49 71° ESE 06:08:26 10° NNE
deb Olympus 3.5 06:01:14 13° WSW 06:03:33 42° S 06:08:42 10° ESE
Cosmos 1689 Rocket 1.9 06:01:37 10° S 06:04:31 81° W 06:07:24 10° NNW
Meteor 1-27 4.2 06:02:25 10° S 06:08:04 75° W 06:13:49 10° N
Cosmos 2058 4.4 06:14:31 10° NW 06:17:19 17° W 06:20:09 10° SW
Cosmos 1408 3.8 06:14:48 10° NW 06:17:37 21° W 06:20:25 10° SW
CZ-4C R/B 1.7 06:17:04 10° SSW 06:21:29 66° WNW 06:26:07 10° NNE
CZ-3B R/B 4.3 06:14:16 10° W 06:23:13 22° SW 06:27:24 10° S
